Find Starlink 1266

NORAD ID: 45383 Int'l Des: 2020-019 Owner: SPXS Country: US Constellation: starlink operational
LEOCIRCULAR

リアルタイム位置

3D地球を読み込み中...

Starlink 1266について

説明を読み込み中...

次回通過

Passes for default location (London). Set your location on the main map for personalized predictions.

高度履歴

Loading altitude history...

軌道要素

1 45383U 20019Z 26104.86931348 .00050900 00000-0 85098-3 0 9997
2 45383 53.0479 319.7738 0004167 164.8000 195.3134 15.51421498335803
Epoch: Apr 14, 2026 • Age: 11 hours

現在のステータス

高度 428.3 km
速度 7.65 km/s
衛星直下点 -41.36°S, 38.72°W
打ち上げ日 Mar 18, 2020
運用期間 6 years
タイプ internet

技術仕様

分類 Payload
質量 260.00 kg
乾燥質量 248.00 kg
総質量 260.00 kg
長さ 0.20 m
直径 2.80 m
スパン 9.00 m
形状 Box + pan
製造者 SPXS
バスタイプ Starlink
フェーズステータス In Orbit
所有者/国 SPXS/US

Most Searched